| time (UTC) | temp F | wind direction | speed knots | gust knots | rain 1hr in | rain 24hr in | rain mn in | humidity % | barometer mb |
| 20260831093023 | 52 | 239 | 0.0 | 0.0 | 0.00 | 0.00 | 0.00 | 84 | 1014.1 |
| 20260831091524 | 53 | 239 | 0.0 | 0.0 | 0.00 | 0.00 | 0.00 | 84 | 1014.2 |
| 20260831090030 | 54 | 243 | 0.0 | 0.0 | 0.00 | 0.00 | 0.00 | 83 | 1014.2 |
| 20260831084538 | 54 | 243 | 0.0 | 0.0 | 0.00 | 0.00 | 0.00 | 82 | 1014.4 |
| 20260831083035 | 55 | 259 | 0.0 | 0.9 | 0.00 | 0.00 | 0.00 | 82 | 1014.5 |
| 20260831081523 | 55 | 261 | 0.0 | 1.7 | 0.00 | 0.00 | 0.00 | 82 | 1014.6 |
| 20260831080044 | 55 | 242 | 0.0 | 2.6 | 0.00 | 0.00 | 0.00 | 82 | 1014.7 |
| 20260831074529 | 56 | 250 | 0.0 | 1.7 | 0.00 | 0.00 | 0.00 | 79 | 1014.9 |
| 20260831073034 | 57 | 257 | 0.0 | 0.0 | 0.00 | 0.00 | 0.00 | 78 | 1015.1 |
| 20260831071520 | 57 | 257 | 0.0 | 0.0 | 0.00 | 0.00 | 0.00 | 78 | 1015.1 |
| 20260831070007 | 58 | 257 | 0.0 | 0.0 | 0.00 | 0.00 | 0.00 | 77 | 1015.2 |
| 20260831064506 | 59 | 257 | 0.0 | 0.0 | 0.00 | 0.00 | 0.00 | 75 | 1015.4 |
| 20260831063010 | 59 | 257 | 0.0 | 0.0 | 0.00 | 0.00 | 0.00 | 73 | 1015.5 |
| 20260831061506 | 60 | 257 | 0.0 | 0.0 | 0.00 | 0.00 | 0.00 | 72 | 1015.6 |
| 20260831060009 | 61 | 257 | 0.0 | 1.7 | 0.00 | 0.00 | 0.00 | 71 | 1015.8 |
| 20260831054505 | 61 | 258 | 0.0 | 1.7 | 0.00 | 0.00 | 0.00 | 70 | 1015.9 |
| 20260831053011 | 62 | 288 | 0.0 | 0.0 | 0.00 | 0.00 | 0.00 | 69 | 1016.1 |
| 20260831051513 | 63 | 281 | 0.0 | 1.7 | 0.00 | 0.00 | 0.00 | 69 | 1016.3 |
| 20260831050014 | 63 | 284 | 0.0 | 1.7 | 0.00 | 0.00 | 0.00 | 68 | 1016.4 |
| 20260831044519 | 64 | 277 | 0.9 | 1.7 | 0.00 | 0.00 | 0.00 | 67 | 1016.5 |
| 20260831043009 | 64 | 290 | 0.9 | 1.7 | 0.00 | 0.00 | 0.00 | 66 | 1016.8 |
| 20260831041510 | 65 | 281 | 0.0 | 2.6 | 0.00 | 0.00 | 0.00 | 65 | 1016.7 |
| 20260831040012 | 66 | 275 | 0.9 | 5.2 | 0.00 | 0.00 | 0.00 | 63 | 1016.7 |
| 20260831034517 | 66 | 266 | 1.7 | 6.1 | 0.00 | 0.00 | 0.00 | 62 | 1016.6 |
| 20260831033004 | 67 | 275 | 0.9 | 7.8 | 0.00 | 0.00 | 0.00 | 61 | 1016.7 |
| 20260831031517 | 68 | 240 | 2.6 | 7.0 | 0.00 | 0.00 | 0.00 | 60 | 1016.6 |
| 20260831030014 | 68 | 347 | 1.7 | 9.6 | 0.00 | 0.00 | 0.00 | 58 | 1016.6 |
| 20260831024513 | 69 | 342 | 4.3 | 12.2 | 0.00 | 0.00 | 0.00 | 57 | 1016.5 |
| 20260831023014 | 70 | 38 | 2.6 | 10.4 | 0.00 | 0.00 | 0.00 | 55 | 1016.5 |
| 20260831021508 | 71 | 293 | 1.7 | 10.4 | 0.00 | 0.00 | 0.00 | 53 | 1016.7 |
| 20260831020010 | 73 | 346 | 3.5 | 7.8 | 0.00 | 0.00 | 0.00 | 51 | 1016.6 |
| 20260831014515 | 74 | 333 | 3.5 | 8.7 | 0.00 | 0.00 | 0.00 | 50 | 1016.6 |
| 20260831013024 | 74 | 244 | 2.6 | 7.8 | 0.00 | 0.00 | 0.00 | 49 | 1016.6 |
| 20260831011515 | 75 | 279 | 2.6 | 9.6 | 0.00 | 0.00 | 0.00 | 48 | 1016.6 |
| 20260831010015 | 75 | 270 | 1.7 | 8.7 | 0.00 | 0.00 | 0.00 | 48 | 1016.6 |
| 20260831004516 | 75 | 304 | 3.5 | 8.7 | 0.00 | 0.00 | 0.00 | 48 | 1017.1 |
| 20260831003017 | 75 | 286 | 2.6 | 7.8 | 0.00 | 0.00 | 0.00 | 47 | 1017.2 |
| 20260831001517 | 75 | 343 | 3.5 | 7.8 | 0.00 | 0.00 | 0.00 | 47 | 1017.2 |
| 20260831000014 | 75 | 286 | 3.5 | 7.0 | 0.00 | 0.00 | 0.00 | 46 | 1017.3 |
| 20260830234516 | 75 | 5 | 3.5 | 8.7 | 0.00 | 0.00 | 0.00 | 46 | 1017.4 |
| 20260830233021 | 74 | 324 | 3.5 | 8.7 | 0.00 | 0.00 | 0.00 | 46 | 1017.4 |
| 20260830231517 | 74 | 360 | 3.5 | 8.7 | 0.00 | 0.00 | 0.00 | 47 | 1017.7 |
| 20260830230021 | 74 | 341 | 2.6 | 8.7 | 0.00 | 0.00 | 0.00 | 47 | 1017.8 |
| 20260830224514 | 74 | 346 | 5.2 | 7.8 | 0.00 | 0.00 | 0.00 | 46 | 1018.1 |
| 20260830223018 | 74 | 352 | 2.6 | 8.7 | 0.00 | 0.00 | 0.00 | 48 | 1018.4 |
| 20260830221519 | 73 | 351 | 2.6 | 7.0 | 0.00 | 0.00 | 0.00 | 48 | 1018.7 |
| 20260830220021 | 73 | 352 | 4.3 | 10.4 | 0.00 | 0.00 | 0.00 | 49 | 1018.8 |
| 20260830214509 | 73 | 352 | 5.2 | 9.6 | 0.00 | 0.00 | 0.00 | 47 | 1019.0 |
| 20260830213019 | 72 | 243 | 0.9 | 9.6 | 0.00 | 0.00 | 0.00 | 51 | 1019.1 |
| 20260830211524 | 71 | 14 | 2.6 | 7.8 | 0.00 | 0.00 | 0.00 | 50 | 1019.4 |
| 20260830210031 | 71 | 352 | 5.2 | 9.6 | 0.00 | 0.00 | 0.00 | 50 | 1019.6 |
| 20260830204509 | 70 | 341 | 3.5 | 7.8 | 0.00 | 0.00 | 0.00 | 50 | 1019.8 |
| 20260830203014 | 70 | 360 | 3.5 | 6.1 | 0.00 | 0.00 | 0.00 | 53 | 1019.9 |
| 20260830201519 | 69 | 266 | 1.7 | 7.8 | 0.00 | 0.00 | 0.00 | 52 | 1020.2 |
| 20260830200028 | 69 | 40 | 0.0 | 7.8 | 0.00 | 0.00 | 0.00 | 54 | 1020.4 |
| 20260830194516 | 69 | 286 | 3.5 | 9.6 | 0.00 | 0.00 | 0.00 | 52 | 1020.5 |
| 20260830193009 | 68 | 34 | 2.6 | 9.6 | 0.00 | 0.00 | 0.00 | 56 | 1020.6 |
| 20260830191522 | 68 | 75 | 0.0 | 7.8 | 0.00 | 0.00 | 0.00 | 54 | 1020.8 |
| 20260830190026 | 67 | 9 | 1.7 | 7.0 | 0.00 | 0.00 | 0.00 | 55 | 1021.1 |
| 20260830184529 | 67 | 328 | 1.7 | 7.0 | 0.00 | 0.00 | 0.00 | 55 | 1021.3 |
| 20260830183008 | 67 | 336 | 0.9 | 7.8 | 0.00 | 0.00 | 0.00 | 56 | 1021.3 |
| 20260830181516 | 65 | 337 | 0.9 | 7.8 | 0.00 | 0.00 | 0.00 | 60 | 1021.3 |
| 20260830180022 | 64 | 360 | 3.5 | 7.0 | 0.00 | 0.00 | 0.00 | 59 | 1021.4 |
| 20260830174528 | 64 | 298 | 4.3 | 7.8 | 0.00 | 0.00 | 0.00 | 60 | 1021.4 |
| 20260830173028 | 63 | 360 | 1.7 | 7.0 | 0.00 | 0.00 | 0.00 | 62 | 1021.4 |
| 20260830171511 | 63 | 281 | 0.9 | 7.0 | 0.00 | 0.00 | 0.00 | 62 | 1021.4 |
| 20260830170024 | 62 | 352 | 0.9 | 2.6 | 0.00 | 0.00 | 0.00 | 68 | 1021.5 |
| 20260830164551 | 61 | 234 | 0.0 | 1.7 | 0.00 | 0.00 | 0.00 | 71 | 1021.4 |
| 20260830163032 | 60 | 330 | 0.0 | 1.7 | 0.00 | 0.00 | 0.00 | 72 | 1021.5 |
| 20260830161512 | 58 | 250 | 0.0 | 0.9 | 0.00 | 0.00 | 0.00 | 74 | 1021.6 |
| 20260830160019 | 57 | 18 | 0.0 | 0.9 | 0.00 | 0.00 | 0.00 | 77 | 1021.8 |
| 20260830154525 | 55 | 5 | 0.0 | 0.9 | 0.00 | 0.00 | 0.00 | 83 | 1021.8 |
| 20260830153032 | 53 | 23 | 0.0 | 0.0 | 0.00 | 0.00 | 0.00 | 85 | 1021.8 |
| 20260830151530 | 51 | 41 | 0.0 | 0.0 | 0.00 | 0.00 | 0.00 | 87 | 1022.0 |
| 20260830150015 | 48 | 78 | 0.0 | 0.0 | 0.00 | 0.00 | 0.00 | 90 | 1021.9 |
| 20260830144521 | 46 | 249 | 0.0 | 0.0 | 0.00 | 0.00 | 0.00 | 92 | 1022.0 |
| 20260830143032 | 45 | 255 | 0.0 | 0.9 | 0.00 | 0.00 | 0.00 | 93 | 1021.9 |
| 20260830141538 | 44 | 45 | 0.0 | 0.0 | 0.00 | 0.00 | 0.00 | 92 | 1021.9 |
| 20260830140030 | 44 | 46 | 0.0 | 0.0 | 0.00 | 0.00 | 0.00 | 92 | 1021.8 |
| 20260830134526 | 44 | 348 | 0.0 | 0.9 | 0.00 | 0.00 | 0.00 | 92 | 1021.8 |
| 20260830133027 | 44 | 251 | 0.0 | 0.0 | 0.00 | 0.00 | 0.00 | 92 | 1021.8 |
| 20260830131530 | 44 | 246 | 0.0 | 0.0 | 0.00 | 0.00 | 0.00 | 91 | 1021.8 |
| 20260830130050 | 44 | 246 | 0.0 | 0.0 | 0.00 | 0.00 | 0.00 | 91 | 1021.6 |
| 20260830124516 | 45 | 257 | 0.0 | 0.0 | 0.00 | 0.00 | 0.00 | 90 | 1021.5 |
| 20260830123026 | 45 | 270 | 0.0 | 0.0 | 0.00 | 0.00 | 0.00 | 90 | 1021.5 |
| 20260830121505 | 46 | 275 | 0.0 | 0.0 | 0.00 | 0.00 | 0.00 | 89 | 1021.5 |
| 20260830120008 | 47 | 309 | 0.0 | 1.7 | 0.00 | 0.00 | 0.00 | 89 | 1021.5 |
| 20260830114512 | 47 | 246 | 0.0 | 1.7 | 0.00 | 0.00 | 0.00 | 86 | 1021.5 |
| 20260830113019 | 48 | 250 | 0.9 | 3.5 | 0.00 | 0.00 | 0.00 | 89 | 1021.4 |
| 20260830111525 | 48 | 239 | 1.7 | 2.6 | 0.00 | 0.00 | 0.00 | 90 | 1021.4 |
| 20260830110010 | 47 | 248 | 0.0 | 1.7 | 0.00 | 0.00 | 0.00 | 90 | 1021.5 |
| 20260830104512 | 47 | 252 | 0.0 | 1.7 | 0.00 | 0.00 | 0.00 | 91 | 1021.6 |
| 20260830103016 | 46 | 234 | 0.0 | 0.0 | 0.00 | 0.00 | 0.00 | 89 | 1021.6 |
| 20260830101525 | 47 | 234 | 0.0 | 0.0 | 0.00 | 0.00 | 0.00 | 86 | 1021.6 |
| 20260830100028 | 47 | 237 | 0.9 | 1.7 | 0.00 | 0.00 | 0.00 | 90 | 1021.6 |
| 20260830094521 | 47 | 244 | 0.0 | 0.0 | 0.00 | 0.00 | 0.00 | 90 | 1021.6 |